Simultaneous Nadir Overpasses (SNOs) Predictions

Prediction of SNOs between GOES-16 and AQUA Satellite Orbit:

Table of predicted SNOs for the next 14.0 days since TLE Epoch: 1/29/2022
Index Date Time (GOES-16) GOES-16 Lat,Lon AQUA Lat,Lon Distance(km) Time Diff (sec)
1 01/29/2022 06:18:15 -0.05, -75.20 -0.96, -70.86 492.76 68
2 01/29/2022 18:39:26 0.05, -75.21 -0.13, -76.06 96.04 80
3 01/31/2022 18:29:53 0.05, -75.21 0.50, -73.09 241.32 80
4 02/01/2022 06:51:08 -0.05, -75.20 0.62, -78.23 345.79 80
5 02/03/2022 06:38:56 -0.05, -75.21 -0.07, -75.28 8.01 80
6 02/05/2022 06:24:02 -0.05, -75.23 -0.64, -72.30 332.31 80
7 02/05/2022 18:45:26 0.05, -75.24 -0.43, -77.49 255.85 80
8 02/07/2022 18:35:53 0.05, -75.27 0.22, -74.53 84.70 80
9 02/09/2022 18:23:39 0.04, -75.29 0.82, -71.55 425.68 80
10 02/10/2022 06:44:55 -0.04, -75.30 0.24, -76.71 160.33 80
